Location: Newark
(48.6461°N, 4.3644°W)
Time: 02:04:46
(UTC+00:00)

A-11 Canister half - Pass Details

Date: 02 February 2020
Orbit: 1517 x 1683 km, 47.2° (Epoch: 26 February)

Event Time Altitude Azimuth Distance (km) Brightness Sun altitude
Exits shadow 04:09:38 29° 171° (S) 2,502 10.0 -35.8°
Drops below altitude 10° 04:14:11 10° 151° (SSE) 3,686 11.1 -35.1°
Sets 04:17:26 0° 144° (SE) 4,679 11.8 -34.5°
